Regional Weather Roundup
Issued by NWS

Home | Current Version | Previous Version | Text Only | Print | Product List | Glossary On
Versions: 1 2 3 4 5 6 7 8 9 10 11 12 13 14 15 16 17 18 19 20 21 22 23 24 25 26 27 28 29 30 31 32 33 34 35 36 37 38 39 40 41 42 43 44 45 46 47 48 49 50
000
ASUS45 KBOU 292007
RWRCO

WEATHER ROUNDUP FOR COLORADO
NATIONAL WEATHER SERVICE DENVER/BOULDER CO
200 PM MDT WED MAR 29 2017

NOTE: "FAIR" INDICATES FEW OR NO CLOUDS BELOW 12000 FEET WITH NO
SIGNIFICANT WEATHER AND/OR OBSTRUCTIONS TO VISIBILITY.

COZ001>005-013-030-031-292100-
...NORTHWEST COLORADO...

CITY           SKY/WX    TMP DP  RH WIND       PRES   REMARKS
CRAIG          PTSUNNY   47  28  47 W13       30.15F
HAYDEN         PTSUNNY   45  25  45 W12G17    30.14F
MEEKER         PTSUNNY   47  32  56 S6        30.15F
MOUNT WERNER   NOT AVBL
STEAMBOAT SPGS CLOUDY    44  29  56 SW6       30.13F
WALDEN         NOT AVBL
$$

COZ006>008-011-292100-
...WEST CENTRAL VALLEYS...

CITY           SKY/WX    TMP DP  RH WIND       PRES   REMARKS
GRAND JUNCTION FAIR      59  24  26 VRB7      30.09F
MONTROSE       FAIR      52  28  39 NW7       30.11F
EAGLE          MOSUNNY   52  25  35 SW8       30.10F
RIFLE          FAIR      56  26  31 NW13G22   30.09F
DELTA          FAIR      61  27  27 SW18G25   30.07F
NUCLA          FAIR      55  25  30 NW6       30.11F
$$

COZ017>023-064>068-292100-
...SOUTHWEST COLORADO...

CITY           SKY/WX    TMP DP  RH WIND       PRES   REMARKS
DURANGO        FAIR      57  30  35 S15G25    29.98F
CORTEZ         FAIR      61  24  24 NE16G28   30.02F
PAGOSA SPRINGS PTSUNNY   52  19  26 NW8       30.01F
TELLURIDE      FAIR      41  22  47 NW3       30.15F
WOLF CREEK PAS FAIR      28  21  74 NW8G17    30.17S WCI  20
$$

COZ009-010-012-014-032>034-037-058>063-292100-
...CENTRAL COLORADO...

CITY           SKY/WX    TMP DP  RH WIND       PRES   REMARKS
ASPEN          FAIR      47  24  40 N9        30.09F
BUENA VISTA    FAIR      51  15  24 NW25G32   30.03F
COPPER MTN     FAIR      28  23  80 MISG      30.16R
BERTHOUD PASS  PTSUNNY   19   9  63 N12G31    30.13S HAZE    WCI   7
COTTONWOOD PAS FAIR      43  19  39 NW3       30.08S
GUNNISON       FAIR      49  17  28 NW14      30.07F
KREMMLING      FAIR      54  21  28 NW6G18    30.09F
LEADVILLE      FAIR      35  13  40 N13G29    30.10S WCI  26
MONARCH PASS   FAIR      27  23  86 N15       30.23S WCI  15
SALIDA         FAIR      54  13  20 N14G29    30.08F
SUNLIGHT       FAIR      30  23  74 W7        30.22S WCI  23
WILKERSON PASS FAIR      30  27  86 NE9       30.12S WCI  22
$$

COZ069>075-292100-
...SAN LUIS VALLEY/SANGRE DE CRISTO MOUNTAINS...

CITY           SKY/WX    TMP DP  RH WIND       PRES   REMARKS
ALAMOSA        FAIR      52  24  33 NW17G37   29.99F
LA VETA PASS   NOT AVBL
SAGUACHE       FAIR      54  23  30 NW17G28   30.01F
$$

COZ035-036-038>040-292100-
...NORTHERN COLORADO FRONT RANGE...

CITY           SKY/WX    TMP DP  RH WIND       PRES   REMARKS
DENVER INTL AP PTSUNNY   53  32  44 N22G29    30.01F
DMNS CITY PARK   N/A     51  31  46 N9G23     30.01F
AURORA         MOSUNNY   51  33  50 N20G26    30.02F
FRONT RANGE AP CLOUDY    50  37  62 NW20G29   30.02F
ERIE MUNI ARPT FAIR      56  29  35 N14G20    30.01F
BOULDER MUN AP FAIR      54  30  40 NE8       30.01F
CENTENNIAL     PTSUNNY   48  31  51 N18       30.02F
BROOMFIELD     PTSUNNY   54  32  43 N16       30.03F
FORT COLLINS   FAIR      56  31  38 N20G26    30.01F
LONGMONT       FAIR      60  29  31 N6G16     30.03F
$$

COZ041-046-047-076>085-087-088-292100-
...PIKES PEAK/PALMER DIVIDE AND SOUTHERN FOOTHILLS...

CITY           SKY/WX    TMP DP  RH WIND       PRES   REMARKS
COLO. SPRINGS  PTSUNNY   48  29  47 NW28G39   30.01F
A. F. ACADEMY  PTSUNNY   46  30  54 N24G33    30.00F
SCHRIEVER AFB  PTSUNNY   46  30  53 N26G38    30.00F
ELLICOTT       CLOUDY   N/A N/A N/A N23G33    29.98F
FALCON         PTSUNNY   44  31  58 N20G32    30.02S
FORT CARSON    SUNNY     51  28  40 N23G32    29.98F
LIMON          CLOUDY    44  36  73 N22G32    29.98F
MONUMENT HILL  CLOUDY    37  32  81 N17G26    30.04F
TRINIDAD       CLOUDY    45  35  68 N18G32    30.01F
$$

COZ042>045-048>051-090-091-292100-
...NORTHEAST COLORADO...

CITY           SKY/WX    TMP DP  RH WIND       PRES   REMARKS
GREELEY ARPT   PTSUNNY   57  32  38 N18G24    30.00F
AKRON          CLOUDY    47  36  65 N21G26    29.99F
BURLINGTON     CLOUDY    43  39  86 N25G32    29.95F
WRAY           NOT AVBL
STERLING       CLOUDY    50  37  62 NE16      29.99F
HOLYOKE        PTSUNNY   48  41  76 N20G26    29.99F
FORT MORGAN    CLOUDY    51  33  50 N16       30.00F
$$

COZ086-089-092>099-292100-
...SOUTHEAST COLORADO...

CITY           SKY/WX    TMP DP  RH WIND       PRES   REMARKS
PUEBLO         FAIR      55  34  45 N31G38    29.98F
LA JUNTA       CLOUDY    50  36  58 N21G30    29.98F
LAMAR          CLOUDY    46  37  71 N18G25    29.95S
SPRINGFIELD      N/A     40  39  97 N28G36    29.94R
$$



USA.gov is the U.S. government's official web portal to all federal, state and local government web resources and services.